When you browse on this site, cookies collect data to enhance your experience and personalize the content and advertising you see.
Visit our Privacy Policy to learn more. By continuing to use the site, you agree to this use of cookies and data.
  • en Belgique
  • Liste des pays
  • À 7 jours
  • Température de l'eau
  • Carte satellitaire
  • Carte météo
  • Widgets météo
  • user-avatar
    Se connecter

    Météo par heure à Perth

    Ce jour, 18 Juin, Mardi

    Heure Température Précipitation Vent Pression Humidité
    00:00 +10°C° 0 mm 2 m/s 770 mmHg 64%
    01:00 +10°C° 0 mm 2 m/s 769 mmHg 64%
    02:00 +9°C° 0 mm 2 m/s 769 mmHg 65%
    03:00 +9°C° 0 mm 2 m/s 769 mmHg 66%
    04:00 +9°C° 0 mm 2 m/s 769 mmHg 67%
    05:00 +9°C° 0 mm 2 m/s 769 mmHg 68%
    06:00 +9°C° 0 mm 2 m/s 769 mmHg 68%
    07:00 +9°C° 0 mm 2 m/s 769 mmHg 69%
    08:00 +9°C° 0 mm 2 m/s 769 mmHg 69%
    09:00 +12°C° 0 mm 1 m/s 769 mmHg 64%
    10:00 +13°C° 0 mm 1 m/s 769 mmHg 59%
    11:00 +15°C° 0 mm 1 m/s 769 mmHg 54%
    12:00 +16°C° 0 mm 1 m/s 768 mmHg 52%
    13:00 +18°C° 0 mm 1 m/s 767 mmHg 49%
    14:00 +18°C° 0 mm 1 m/s 767 mmHg 47%
    15:00 +18°C° 0 mm 1 m/s 767 mmHg 50%
    16:00 +16°C° 0 mm 1 m/s 766 mmHg 54%
    17:00 +15°C° 0 mm 2 m/s 766 mmHg 57%
    18:00 +14°C° 0 mm 2 m/s 766 mmHg 61%
    19:00 +13°C° 0 mm 2 m/s 767 mmHg 65%
    20:00 +12°C° 0 mm 2 m/s 767 mmHg 68%
    21:00 +12°C° 0 mm 2 m/s 767 mmHg 68%
    22:00 +12°C° 0 mm 2 m/s 767 mmHg 68%
    23:00 +10°C° 0 mm 2 m/s 767 mmHg 68%

    Demain, 19 Juin, Mercredi

    Heure Température Précipitation Vent Pression Humidité
    00:00 +10°C° 0 mm 2 m/s 767 mmHg 67%
    01:00 +10°C° 0 mm 2 m/s 767 mmHg 66%
    02:00 +9°C° 0 mm 2 m/s 767 mmHg 65%
    03:00 +9°C° 0 mm 2 m/s 767 mmHg 65%
    04:00 +9°C° 0 mm 3 m/s 766 mmHg 66%
    05:00 +9°C° 0 mm 3 m/s 766 mmHg 66%
    06:00 +9°C° 0 mm 3 m/s 767 mmHg 67%
    07:00 +9°C° 0 mm 3 m/s 767 mmHg 67%
    08:00 +9°C° 0 mm 3 m/s 767 mmHg 68%
    09:00 +11°C° 0 mm 3 m/s 767 mmHg 63%
    10:00 +13°C° 0 mm 3 m/s 766 mmHg 58%
    11:00 +16°C° 0 mm 3 m/s 766 mmHg 53%
    12:00 +17°C° 0 mm 3 m/s 766 mmHg 50%
    13:00 +18°C° 0 mm 3 m/s 765 mmHg 47%
    14:00 +18°C° 0 mm 3 m/s 764 mmHg 44%
    15:00 +18°C° 0 mm 2 m/s 764 mmHg 47%
    16:00 +17°C° 0 mm 2 m/s 764 mmHg 50%
    17:00 +16°C° 0 mm 2 m/s 764 mmHg 52%
    18:00 +15°C° 0 mm 2 m/s 764 mmHg 54%
    19:00 +14°C° 0 mm 2 m/s 765 mmHg 56%
    20:00 +13°C° 0 mm 2 m/s 765 mmHg 58%
    21:00 +12°C° 0 mm 3 m/s 765 mmHg 57%
    22:00 +11°C° 0 mm 3 m/s 765 mmHg 57%
    23:00 +11°C° 0 mm 3 m/s 765 mmHg 57%

    Après-demain, 20 Juin, Jeudi

    Heure Température Précipitation Vent Pression Humidité
    00:00 +11°C° 0 mm 3 m/s 765 mmHg 56%
    01:00 +11°C° 0 mm 4 m/s 764 mmHg 55%
    02:00 +11°C° 0 mm 4 m/s 764 mmHg 54%
    03:00 +11°C° 0 mm 4 m/s 764 mmHg 53%
    04:00 +10°C° 0 mm 5 m/s 764 mmHg 53%
    05:00 +10°C° 0 mm 5 m/s 764 mmHg 52%
    06:00 +10°C° 0 mm 5 m/s 764 mmHg 52%
    07:00 +10°C° 0 mm 5 m/s 764 mmHg 51%
    08:00 +10°C° 0 mm 5 m/s 763 mmHg 51%
    09:00 +12°C° 0 mm 5 m/s 763 mmHg 51%
    10:00 +13°C° 0 mm 5 m/s 763 mmHg 50%
    11:00 +15°C° 0 mm 4 m/s 763 mmHg 49%
    12:00 +15°C° 0 mm 4 m/s 762 mmHg 49%
    13:00 +17°C° 0 mm 4 m/s 761 mmHg 50%
    14:00 +18°C° 0 mm 4 m/s 761 mmHg 50%
    15:00 +18°C° 0 mm 4 m/s 761 mmHg 52%
    16:00 +18°C° 0 mm 4 m/s 761 mmHg 54%
    17:00 +17°C° 0 mm 3 m/s 761 mmHg 55%
    18:00 +17°C° 0 mm 3 m/s 761 mmHg 55%
    19:00 +17°C° 0 mm 4 m/s 761 mmHg 55%
    20:00 +15°C° 0 mm 4 m/s 761 mmHg 55%
    21:00 +15°C° 0 mm 4 m/s 760 mmHg 56%
    22:00 +15°C° 0 mm 4 m/s 760 mmHg 57%
    23:00 +15°C° 0 mm 4 m/s 760 mmHg 57%

    21 Juin, Vendredi

    Heure Température Précipitation Vent Pression Humidité
    00:00 +15°C° 0 mm 4 m/s 760 mmHg 58%
    01:00 +14°C° 0 mm 4 m/s 759 mmHg 59%
    02:00 +14°C° 0 mm 4 m/s 759 mmHg 60%
    03:00 +14°C° 0 mm 3 m/s 759 mmHg 63%
    04:00 +13°C° 0 mm 3 m/s 759 mmHg 65%
    05:00 +14°C° 0 mm 2 m/s 758 mmHg 68%
    06:00 +14°C° 0 mm 2 m/s 759 mmHg 69%
    07:00 +14°C° 0 mm 2 m/s 759 mmHg 70%
    08:00 +14°C° 0 mm 2 m/s 759 mmHg 72%
    09:00 +16°C° 0 mm 2 m/s 759 mmHg 66%
    10:00 +18°C° 0 mm 2 m/s 759 mmHg 60%
    11:00 +20°C° 0 mm 2 m/s 759 mmHg 54%
    12:00 +20°C° 0 mm 3 m/s 758 mmHg 55%
    13:00 +21°C° 0 mm 3 m/s 758 mmHg 55%
    14:00 +21°C° 0 mm 3 m/s 757 mmHg 56%
    15:00 +20°C° 0 mm 3 m/s 758 mmHg 60%
    16:00 +19°C° 0 mm 2 m/s 758 mmHg 64%
    17:00 +19°C° 0 mm 2 m/s 758 mmHg 68%
    18:00 +18°C° 0 mm 2 m/s 758 mmHg 72%
    19:00 +18°C° 0 mm 1 m/s 759 mmHg 75%
    20:00 +16°C° 0 mm 1 m/s 759 mmHg 79%
    21:00 +16°C° 0 mm 2 m/s 759 mmHg 79%
    22:00 +16°C° 0 mm 2 m/s 759 mmHg 80%
    23:00 +15°C° 0 mm 2 m/s 759 mmHg 80%

    22 Juin, Samedi

    Heure Température Précipitation Vent Pression Humidité
    00:00 +15°C° 0 mm 2 m/s 758 mmHg 82%
    01:00 +14°C° 0 mm 3 m/s 758 mmHg 83%
    02:00 +14°C° 0 mm 3 m/s 758 mmHg 84%
    03:00 +14°C° 0 mm 3 m/s 758 mmHg 82%
    04:00 +14°C° 0 mm 3 m/s 757 mmHg 81%
    05:00 +14°C° 0 mm 4 m/s 757 mmHg 80%
    06:00 +14°C° 0 mm 4 m/s 757 mmHg 78%
    07:00 +14°C° 0 mm 4 m/s 757 mmHg 76%
    08:00 +14°C° 0 mm 4 m/s 756 mmHg 73%
    09:00 +16°C° 0 mm 5 m/s 756 mmHg 71%
    10:00 +19°C° 0 mm 6 m/s 756 mmHg 68%
    11:00 +21°C° 0 mm 8 m/s 756 mmHg 65%
    12:00 +21°C° 0.1 mm 8 m/s 755 mmHg 65%
    13:00 +21°C° 0.1 mm 8 m/s 754 mmHg 66%
    14:00 +21°C° 0.1 mm 8 m/s 753 mmHg 66%
    15:00 +20°C° 1.1 mm 7 m/s 753 mmHg 71%
    16:00 +20°C° 1.1 mm 7 m/s 752 mmHg 77%
    17:00 +18°C° 1.1 mm 7 m/s 752 mmHg 83%
    18:00 +18°C° 7.6 mm 7 m/s 752 mmHg 85%
    19:00 +17°C° 7.6 mm 8 m/s 752 mmHg 88%
    20:00 +17°C° 7.6 mm 9 m/s 752 mmHg 90%
    21:00 +17°C° 3.6 mm 8 m/s 752 mmHg 88%
    22:00 +17°C° 3.6 mm 7 m/s 752 mmHg 87%
    23:00 +17°C° 3.6 mm 5 m/s 753 mmHg 85%

    23 Juin, Dimanche

    Heure Température Précipitation Vent Pression Humidité
    00:00 +16°C° 0.2 mm 5 m/s 753 mmHg 84%
    01:00 +17°C° 0.2 mm 4 m/s 753 mmHg 83%
    02:00 +16°C° 0.2 mm 3 m/s 754 mmHg 82%
    03:00 +16°C° 0.1 mm 3 m/s 754 mmHg 82%
    04:00 +15°C° 0.1 mm 4 m/s 754 mmHg 83%
    05:00 +15°C° 0.1 mm 4 m/s 754 mmHg 83%
    06:00 +15°C° 0.1 mm 4 m/s 754 mmHg 82%
    07:00 +15°C° 0.1 mm 4 m/s 755 mmHg 81%
    08:00 +15°C° 0.1 mm 4 m/s 755 mmHg 80%
    09:00 +16°C° 0.2 mm 5 m/s 755 mmHg 76%
    10:00 +16°C° 0.2 mm 6 m/s 756 mmHg 73%
    11:00 +17°C° 0.2 mm 7 m/s 756 mmHg 70%
    12:00 +17°C° 0.3 mm 7 m/s 756 mmHg 69%
    13:00 +17°C° 0.3 mm 8 m/s 755 mmHg 68%
    14:00 +18°C° 0.3 mm 8 m/s 755 mmHg 67%
    15:00 +17°C° 0.1 mm 8 m/s 756 mmHg 67%
    16:00 +17°C° 0.1 mm 7 m/s 756 mmHg 67%
    17:00 +16°C° 0.1 mm 7 m/s 756 mmHg 67%
    18:00 +16°C° 0.5 mm 7 m/s 757 mmHg 70%
    19:00 +16°C° 0.5 mm 6 m/s 757 mmHg 72%
    20:00 +15°C° 0.5 mm 6 m/s 758 mmHg 75%
    21:00 +15°C° 0.1 mm 6 m/s 758 mmHg 73%
    22:00 +15°C° 0.1 mm 5 m/s 758 mmHg 72%
    23:00 +15°C° 0.1 mm 5 m/s 758 mmHg 70%
    Voir plus